Starlink 32033

operational
NORAD ID: 60144 Int'l Des: 2024-120 Owner: SPXS Country: US Constellation: starlink
LEOCIRCULAR

Starlink 32033について

説明を読み込み中...

リアルタイム位置

3D地球を読み込み中...

次回通過

高度履歴

Altitude vs Time

uPlot chart will show altitude changes over time

軌道要素

1 60144U 24120K 25354.23546152 -.00000853 00000-0 -16677-4 0 9990
2 60144 53.1631 328.8251 0001432 101.2849 258.8313 15.30191788 84218
Epoch: Dec 20, 2025 • Age: 13 hours

現在のステータス

高度 479.7 km
速度 7.63 km/s
衛星直下点 -15.97°S, 143.01°E
打ち上げ日 Jun 27, 2024
運用期間 1.4 years
タイプ internet

技術仕様

分類 Payload
質量 730.00 kg
乾燥質量 700.00 kg
総質量 730.00 kg
長さ 0.30 m
直径 4.10 m
スパン 29.00 m
形状 Box + pan
製造者 SPXS
バスタイプ Starlink V2M
フェーズステータス In Orbit
所有者/国 SPXS/US

大規模コンステレーション

Loading constellations...